Flag for Australia Weather past 2 weeks in Kalgoorlie, Western Australia, Australia

Now
73 °F

Sunny.


Feels Like: 77 °F
Forecast: 45 / 75 °F
Wind: 14 mph from West

Location: Kalgoorlie Boulder Amo

Current Time: Jun 3, 2015 at 3:42:46 PM

Latest Report: Jun 3, 2015 at 3:00 PM


Visibility: 10 mi

Pressure: 30.09 "Hg

Humidity: 33%

Dew point: 43 °F

Location of KalgoorlieLocation

Historic Weather in Kalgoorlie — Graph

°F

Kalgoorlie temperature yesterday

Maximum temperature yesterday: 75 °F (at 1:30 PM)
Minimum temperature yesterday: 52 °F (at 6:00 AM)
Average temperature yesterday: 62 °F

Past Weeks' High & Low Weather Summary

 TemperatureHumidityPressure
High75 °F (Jun 2, 1:30 PM)100% (May 26, 4:30 AM)30.42 "Hg (May 26, 4:30 AM)
Low37 °F (May 30, 6:30 AM)23% (Jun 2, 1:00 PM)29.89 "Hg (Jun 2, 1:30 PM)
Average55 °F57%30.19 "Hg
* Reported May 19 2:00 PM — Jun 3 2:00 PM, Kalgoorlie, Weather by CustomWeather, © 2015

Note: Actual official high and low records may vary slightly from our data, if they occured in-between our weather recording intervals... More about our weather records

Advertising

Kalgoorlie weather history for previous 24 hours

 ConditionsComfort  
Time TempWeatherWind HumidityBarometerVisibility
2:00 PM
Wed, Jun 3
72 °FSunny.15 mph38%30.09 "Hg10 mi
1:30 PM72 °FPassing clouds.16 mph38%30.09 "HgN/A
1:00 PM72 °FPassing clouds.15 mph38%30.09 "HgN/A
12:30 PM72 °FPassing clouds.15 mph41%30.09 "HgN/A
12:00 PM70 °FPassing clouds.14 mph43%30.09 "HgN/A
11:30 AM68 °FPassing clouds.14 mph46%30.12 "HgN/A
11:00 AM68 °FPassing clouds.13 mph49%30.12 "HgN/A
10:30 AM66 °FPassing clouds.15 mph52%30.12 "HgN/A
10:00 AM63 °FPassing clouds.13 mph56%30.12 "HgN/A
9:30 AM63 °FPassing clouds.9 mph56%30.12 "HgN/A
9:00 AM57 °FPassing clouds.10 mph67%30.12 "HgN/A
8:30 AM55 °FPartly sunny.9 mph67%30.12 "HgN/A
8:00 AM54 °FSunny.9 mph72%30.09 "Hg10 mi
7:30 AM50 °FSunny.8 mph76%30.09 "Hg10 mi
7:00 AM50 °FSunny.8 mph76%30.09 "Hg10 mi
6:30 AM50 °FSunny.8 mph76%30.07 "Hg10 mi
6:00 AM50 °FSunny.9 mph76%30.07 "Hg10 mi
5:30 AM50 °FClear.8 mph76%30.07 "HgN/A
5:00 AM50 °FClear.8 mph76%30.07 "HgN/A
4:30 AM48 °FClear.7 mph82%30.07 "HgN/A
4:00 AM48 °FClear.7 mph82%30.07 "HgN/A
3:30 AM50 °FClear.7 mph76%30.07 "HgN/A
3:00 AM50 °FClear.6 mph76%30.07 "HgN/A
2:00 AM52 °FClear.7 mph67%30.04 "HgN/A
1:30 AM52 °FClear.6 mph67%30.04 "HgN/A
1:00 AM54 °FClear.6 mph63%30.04 "HgN/A
12:30 AM55 °FClear.5 mph59%30.04 "HgN/A
12:00 AM55 °FClear.6 mph63%30.04 "HgN/A
11:00 PM
Tue, Jun 2
54 °FClear.5 mph67%30.04 "HgN/A
10:00 PM57 °FClear.6 mph59%30.04 "HgN/A
9:00 PM59 °FPassing clouds.7 mph55%30.04 "HgN/A
8:30 PM61 °FPassing clouds.8 mph52%30.01 "HgN/A
8:00 PM61 °FPassing clouds.6 mph55%30.01 "HgN/A
7:30 PM61 °FClear.7 mph55%30.01 "HgN/A
7:00 PM63 °FPassing clouds.7 mph52%29.98 "HgN/A
6:00 PM66 °FPassing clouds.9 mph49%29.98 "HgN/A
5:30 PM68 °FPassing clouds.9 mph46%29.95 "HgN/A
5:00 PM68 °FPassing clouds.10 mph43%29.95 "HgN/A
4:30 PM70 °FPassing clouds.13 mph40%29.92 "HgN/A
4:00 PM72 °FOvercast.12 mph33%29.92 "HgN/A
3:30 PM72 °FOvercast.13 mph33%29.92 "HgN/A
3:00 PM72 °FSunny.14 mph31%29.92 "Hg10 mi
Weather by CustomWeather, © 2015

See weather overviewHow to use our weather pages